{"data":{"norad_id":56406,"epoch":"2026-09-20T02:34:17.848128Z","epoch_age_seconds":145922,"freshness":"FRESH","line1":"1 56406U 23061AJ  26263.10715102 -.00000174  00000+0  31803-5 0  9991","line2":"2 56406  43.0013 169.4539 0000882 210.9253 149.1547 15.27575538186601","mean_motion":15.27575538,"eccentricity":8.82e-5,"inclination_deg":43.0013,"raan_deg":169.4539,"arg_perigee_deg":210.9253,"mean_anomaly_deg":149.1547,"bstar":3.1803e-6,"rev_number":18660,"period_min":94.267024063854,"perigee_km":482.45729911327,"apogee_km":483.66761469747,"semimajor_km":6861.1994569054,"source":"CELESTRAK","updated_at":"2026-09-21T09:00:33.435877Z"}}